Back to catalog

STARLINK-32584

AliveCommunicationsVLEO
NORAD 62179·PAYLOAD·🇺🇸 United States

Launched Nov 30, 2024 from Vandenberg Space Force Base

Loading…

Next Passes (next 24 hours)

TLE

FreshSource: CelesTrak SupGP

Epoch: Sep 14, 2026, 20:57 UTC

1 62179C 24225S   26257.87340278  .00021515  00000+0  18027-2 0  2571
2 62179  70.0018  47.3689 0002900 273.4279  78.5536 14.98327940    17

Track STARLINK-32584 in real time with AllMySat

Download on the App Store